Regional Weather Roundup
Issued by NWS

Home | Current Version | Previous Version | Text Only | Print | Product List | Glossary Off
Versions: 1 2 3 4 5 6 7 8 9 10 11 12 13 14 15 16 17 18 19 20 21 22 23 24 25 26 27

000
ASUS45 KSLC 211410
RWRUT

UTAH REGIONAL WEATHER ROUNDUP
NATIONAL WEATHER SERVICE SALT LAKE CITY UT
700 AM MST TUE NOV 21 2017

UTZ001>011-023>025-211500-

NORTHERN UTAH

CITY           SKY/WX    TMP DP  RH WIND       PRES   REMARKS
BRIGHAM CITY   CLOUDY    41  37  85 NW3       30.29R
DUGWAY         MOCLDY    40  32  74 NE3       30.26R
HILL AFB       MOCLDY    40  34  78 N5        30.28R
LOGAN          CLOUDY    41  38  89 CALM      30.29R
OGDEN          CLOUDY    41  36  82 NE3       30.28R
SALT LAKE CITY MOCLDY    45  38  76 NW7       30.27R
TOOELE VALLEY  CLOUDY    41  34  75 SW6       30.28R
WENDOVER       CLOUDY    39  30  70 CALM      30.29R
HEBER CITY     MIX PCPN  37  34  87 CALM      30.28R
WEST JORDAN    CLOUDY    42  39  88 CALM      30.28R

$$

UTZ011>015-024>027-211500-

CENTRAL/NORTHEAST UTAH

CITY           SKY/WX    TMP DP  RH WIND       PRES   REMARKS
PROVO AIRPORT  CLOUDY    41  38  89 CALM      30.28R
MOAB/CANYONLAN MOCLDY    28  12  51 CALM      30.30R
DELTA          PTCLDY    34  21  60 CALM      30.28R
PRICE          CLOUDY    29  11  47 NW5       30.29R WCI  24
RICHFIELD      CLEAR     30  27  86 N6        30.32R FOG     WCI  24
ROOSEVELT      CLOUDY    28  18  64 W6        30.27R WCI  22
VERNAL         CLOUDY    32  15  49 E6        30.24R WCI  26

$$

UTZ013>016-019>022-027-211500-

SOUTHERN UTAH

CITY           SKY/WX    TMP DP  RH WIND       PRES   REMARKS
BRYCE CANYON   PTCLDY    25  11  55 VRB7      30.35R WCI  17
CEDAR CITY     PTCLDY    27  18  69 SW3       30.28R
MILFORD        PTCLDY    31  15  52 SW9       30.28R WCI  23
ST GEORGE      PTSUNNY   38   9  30 CALM      30.29R
HANKSVILLE     MOCLDY    25   9  50 W6        30.32R WCI  18
KANAB          CLEAR     32  12  43 NE5       30.32S WCI  27
BLANDING         N/A     33  10  38 NW3       30.35R

$$

REGIONAL REPORTS     COLORADO/ARIZONA

CITY           SKY/WX    TMP DP  RH WIND       PRES   REMARKS
CRAIG, CO      CLOUDY    35  31  85 CALM      30.26R
GRAND JUNCTION CLOUDY    37  22  54 SE8       30.31R WCI  31
RIFLE, CO      CLOUDY    33  29  85 CALM      30.33S
MONTROSE, CO   CLOUDY    34  25  69 CALM      30.35R
CORTEZ, CO     CLOUDY    27  15  61 E7        30.26R WCI  19
COLORADO CITY    N/A     32   9  37 CALM      30.31R
PAGE, AZ       PTCLDY    38  15  39 CALM      30.27R HAZE
GRAND CANYON   PTCLDY    25   4  40 NE3       30.32R
KINGMAN, AZ    PTCLDY    42  14  32 E6        30.22R
FLAGSTAFF, AZ  CLEAR     26   9  48 CALM      30.31R

$$

REGIONAL REPORTS    NEVADA/IDAHO/WYOMING

CITY           SKY/WX    TMP DP  RH WIND       PRES   REMARKS
LAS VEGAS, NV  MOCLDY    50  12  21 SW3       30.21R
ELY, NY        CLOUDY    45  26  47 S8        30.33R
ELKO, NV       CLOUDY    47  42  83 CALM      30.30R
POCATELLO, ID  CLOUDY    43  40  89 CALM      30.25R
BURLEY, ID     MOCLDY    48  44  86 SW9       30.23R
FORT BRIDGER,  CLOUDY    40  38  93 SW12      30.31R WCI  33
EVANSTON, WY   CLOUDY    37  35  92 SW14      30.29R WCI  28
ROCK SPRINGS,  CLOUDY    36  33  89 SW16      30.24R WCI  26
KEMMERER, WY   CLOUDY    36  34  93 W6        30.26R WCI  31

$$




USA.gov is the U.S. government's official web portal to all federal, state and local government web resources and services.